Monterey, CA

5:18 PM PDT on May 26, 2017 (GMT -0700)
Monterey Peninsula

Weather History for KMRY - January, 2014

Change the Weather History Date:

Monday, January 6, 2014

  Actual Average Record
Temperature  
Mean Temperature 54 °F 51 °F  
Max Temperature 65 °F 60 °F 75 °F (2015)
Min Temperature 43 °F 42 °F 30 °F (2017)
Degree Days  
Heating Degree Days 11    
Month to date heating degree days 68  
Since 1 July heating degree days 1283  
Cooling Degree Days 0    
Month to date cooling degree days 0  
Year to date cooling degree days 0  
Growing Degree Days 4 (Base 50)    
Moisture  
Dew Point 41 °F    
Average Humidity 68    
Maximum Humidity 93    
Minimum Humidity 42    
Precipitation  
Precipitation 0.00 in - 1.48 in (2016)
Month to date precipitation 0.00  
Year to date precipitation 0.00  
Since 1 July precipitation 1.28  
Sea Level Pressure  
Sea Level Pressure 30.23 in    
Wind  
Wind Speed 1 mph (East)    
Max Wind Speed 8 mph    
Max Gust Speed 9 mph    
Visibility 9 miles    
Events      
T = Trace of Precipitation, MM = Missing Value Source: NWS Daily Summary

Daily Weather History Graph

Daily Weather History Graph

Search for Another Location

Airport or City:

Trip Planner

Search our weather history database for the weather conditions in past years. The results will help you decide how hot, cold, wet, or windy it might be!

Date:

Astronomy

Jan. 06, 2014 Rise Set
Actual Time 7:19 AM PST 5:06 PM PST
Civil Twilight 6:51 AM PST 5:35 PM PST
Nautical Twilight 6:19 AM PST 6:07 PM PST
Astronomical Twilight 5:48 AM PST 6:38 PM PST
Moon 10:48 AM PST (1/6) 11:34 PM PST (1/6)
Length of Visible Light 10h 43m
Length of Day
9h 46m
Waxing Crescent, 36% of the Moon is Illuminated
Jan 6
Waxing Crescent
Jan 7
First Quarter
Jan 15
Full
Jan 23
Last Quarter
Jan 30
New

Hourly Weather History & Observations

Time (PST) Temp. Windchill Dew Point Humidity Pressure Visibility Wind Dir Wind Speed Gust Speed Precip Events Conditions
12:54 AM 44.1 °F 42.5 °F 33.1 °F 65% 30.21 in 10.0 mi East 3.5 mph - N/A   Clear
1:54 AM 44.1 °F - 30.9 °F 60% 30.22 in 10.0 mi Calm Calm - N/A   Clear
2:54 AM 46.9 °F - 28.9 °F 50% 30.23 in 10.0 mi Calm Calm - N/A   Clear
3:54 AM 45.0 °F 43.5 °F 28.0 °F 52% 30.22 in 10.0 mi East 3.5 mph - N/A   Clear
4:54 AM 48.9 °F - 27.0 °F 43% 30.21 in 10.0 mi ESE 3.5 mph - N/A   Clear
5:54 AM 46.9 °F - 28.0 °F 48% 30.23 in 10.0 mi Calm Calm - N/A   Clear
6:54 AM 48.0 °F - 28.0 °F 46% 30.24 in 10.0 mi Calm Calm - N/A   Clear
7:54 AM 50.0 °F - 28.9 °F 44% 30.26 in 10.0 mi Calm Calm - N/A   Clear
8:54 AM 51.1 °F - 30.9 °F 46% 30.29 in 10.0 mi Calm Calm - N/A   Clear
9:54 AM 55.9 °F - 41.0 °F 57% 30.30 in 10.0 mi Calm Calm - N/A   Clear
10:54 AM 57.9 °F - 39.9 °F 51% 30.29 in 10.0 mi Calm Calm - N/A   Clear
11:54 AM 55.9 °F - 44.1 °F 64% 30.27 in 10.0 mi Calm Calm - N/A   Clear
12:54 PM 61.0 °F - 44.1 °F 54% 30.23 in 10.0 mi Calm Calm - N/A   Clear
1:54 PM 62.1 °F - 43.0 °F 50% 30.21 in 10.0 mi Calm Calm - N/A   Clear
2:54 PM 64.0 °F - 44.1 °F 48% 30.20 in 10.0 mi Calm Calm - N/A   Clear
3:54 PM 61.0 °F - 44.1 °F 54% 30.19 in 10.0 mi Calm Calm - N/A   Clear
4:54 PM 57.0 °F - 51.1 °F 81% 30.20 in 10.0 mi NNE 3.5 mph - N/A   Clear
5:54 PM 55.0 °F - 51.1 °F 86% 30.22 in 10.0 mi Calm Calm - N/A   Clear
6:54 PM 55.0 °F - 50.0 °F 83% 30.22 in 9.0 mi East 3.5 mph - N/A   Clear
7:54 PM 54.0 °F - 50.0 °F 86% 30.25 in 6.0 mi Calm Calm - N/A   Clear
8:54 PM 53.1 °F - 48.9 °F 86% 30.25 in 8.0 mi East 3.5 mph - N/A   Clear
9:30 PM 53.6 °F - 50.0 °F 88% 30.21 in 6.0 mi East 4.6 mph - N/A   Scattered Clouds
9:39 PM 53.6 °F - 50.0 °F 88% 30.21 in 6.0 mi Calm Calm - N/A   Mostly Cloudy
9:54 PM 53.1 °F - 50.0 °F 89% 30.24 in 6.0 mi Calm Calm - N/A   Overcast
10:54 PM 53.1 °F - 51.1 °F 93% 30.24 in 4.0 mi Calm Calm - N/A   Overcast
11:36 PM 51.8 °F - 50.0 °F 94% 30.18 in 5.0 mi Calm Calm - N/A   Scattered Clouds
11:54 PM 51.1 °F - 48.9 °F 92% 30.21 in 5.0 mi Calm Calm - N/A   Clear